EDT,Max TemperatureF,Mean TemperatureF,Min TemperatureF,Max Dew PointF,MeanDew PointF,Min DewpointF,Max Humidity, Mean Humidity, Min Humidity, Max Sea Level PressureIn, Mean Sea Level PressureIn, Min Sea Level PressureIn, Max VisibilityMiles, Mean VisibilityMiles, Min VisibilityMiles, Max Wind SpeedMPH, Mean Wind SpeedMPH, Max Gust SpeedMPH,PrecipitationIn, CloudCover, Events, WindDirDegrees
2013-3-1,37,34,32,30,29,28,93,84,75,30.08,30.04,30.00,10,6,2,14,7,,0.00,7,,322
2013-3-2,33,30,28,28,26,21,87,82,70,30.16,30.11,30.06,10,9,3,14,9,20,0.00,7,,331
2013-3-3,37,29,21,21,18,14,86,66,38,30.18,30.14,30.10,10,10,10,24,8,,0.00,2,,293
2013-3-4,44,34,23,27,22,18,80,62,49,30.14,30.04,29.89,10,10,10,20,6,22,0.00,4,,113
2013-3-5,46,38,30,43,33,25,87,81,49,29.91,29.82,29.69,10,8,1,26,11,41,0.10,8,,265
2013-3-6,32,31,30,27,26,25,86,82,75,30.33,30.17,29.89,10,9,3,25,18,32,0.00,8,,310
2013-3-7,37,34,30,28,26,25,86,76,60,30.42,30.38,30.32,10,10,7,9,5,,0.00,8,,356
2013-3-8,51,40,28,30,26,21,86,64,38,30.48,30.40,30.32,10,10,8,10,5,,0.00,1,,81
2013-3-9,59,47,35,36,31,27,70,53,36,30.32,30.17,30.00,10,10,10,14,9,17,0.00,2,,132
2013-3-10,66,60,53,48,38,34,82,47,34,30.00,29.88,29.75,10,10,9,21,13,34,0.02,2,,164
2013-3-11,53,44,35,50,40,28,88,79,66,29.97,29.79,29.72,10,10,8,24,12,31,0.03,8,,223
2013-3-12,46,40,33,30,27,25,81,62,43,30.13,30.05,29.98,10,10,10,20,12,26,0.00,4,,273
2013-3-13,35,30,24,30,19,14,81,61,51,30.40,30.28,30.13,10,10,4,23,12,33,0.00,5,,297
2013-3-14,42,30,19,27,21,16,86,68,42,30.41,30.34,30.21,10,10,8,12,4,17,0.00,2,,191
2013-3-15,62,46,30,46,35,25,86,67,48,30.21,29.98,29.74,10,10,10,15,6,,0.00,0,,170
2013-3-16,64,52,39,48,43,36,87,66,55,30.02,29.84,29.67,10,8,5,20,15,29,0.00,1,,293
2013-3-17,39,36,33,36,33,30,93,86,81,30.09,30.02,29.86,10,7,2,17,9,26,1.20,7,,43
2013-3-18,48,42,37,45,38,34,93,85,76,29.93,29.77,29.65,10,9,1,22,11,36,0.04,7,Thunderstorm,239
2013-3-19,46,37,28,34,23,18,87,58,34,30.19,30.12,29.92,10,10,10,21,10,28,0.00,0,,273
2013-3-20,35,29,23,23,18,10,74,59,44,30.18,30.13,30.09,10,10,10,23,7,26,0.00,2,,282
2013-3-21,33,26,19,18,12,10,69,57,41,30.12,30.06,30.02,10,10,8,13,7,18,0.00,1,,316
2013-3-22,39,29,19,23,17,14,86,58,39,30.10,30.05,30.02,10,10,10,9,3,,0.00,4,,102
2013-3-23,55,45,35,30,24,21,60,47,35,30.05,29.98,29.82,10,10,10,13,6,16,0.00,5,,46
2013-3-24,44,38,33,36,31,25,93,78,46,29.82,29.59,29.41,10,7,2,25,12,30,0.33,8,,63
2013-3-25,33,32,30,30,28,27,87,84,75,30.08,29.81,29.52,10,5,1,25,16,30,0.00,8,,293
2013-3-26,41,36,32,30,27,21,87,71,56,30.33,30.21,30.09,10,10,2,16,11,20,0.00,7,,304
2013-3-27,46,38,30,28,25,21,75,61,43,30.39,30.35,30.32,10,10,10,13,6,17,0.00,5,,295
2013-3-28,51,38,24,28,25,21,93,60,37,30.42,30.35,30.30,10,9,4,7,3,,0.00,0,,1
2013-3-29,53,42,30,43,35,27,87,73,57,30.33,30.28,30.22,10,10,3,10,4,,0.00,3,,161
2013-3-30,59,44,30,45,37,28,93,75,42,30.25,30.13,29.95,10,5,0,14,3,17,0.00,4,,160
2013-3-31,60,53,46,48,45,41,93,82,59,29.94,29.88,29.85,10,6,1,14,4,17,0.08,6,,261